Location: Bettgenhausen
(50.6463°N, 7.5681°E)
Time: 17:05:46
(UTC+00:00)

STARLINK-1024 - Pass Details

Date: 27 February 2020
Orbit: 549 x 551 km, 53.0° (Epoch: 30 March)

Event Time Altitude Azimuth Distance (km) Brightness Sun altitude
Rises 18:27:49 0° 256° (WSW) 2,713 8.7 -13.6°
Maximum altitude 18:34:11 77° 344° (NNW) 568 3.7 -14.6°
Enters shadow 18:36:36 24° 69° (ENE) 1,157 4.7 -15.0°
